User: anonymous   Login
Location: Home
(42.5358°N, 72.7383°W)
Time: 13:52:23
(UTC-05:00)
Language:

IRIDIUM 152 - Orbit

View from above orbital plane
View from above orbital plane
View from above satellite
View from above satellite

Ground track
Ground track

The orbit data is extracted from the following two-line orbital elements,

1 43479U 18047D   22332.10508125  .00000194  00000-0  62161-4 0  9995
2 43479  86.3956 270.3505 0002358  86.9911 273.1555 14.34217539236581
Epoch (UTC): 28 November 2022 02:31:19
Eccentricity: 0.0002358
inclination: 86.3956°
perigee height: 776 km
apogee height: 779 km
right ascension of ascending node: 270.3505°
argument of perigee: 86.9911°
revolutions per day: 14.34217539
mean anomaly at epoch: 273.1555°
orbit number at epoch: 23658

The dashed part of the orbit path shows where the satellite is in the earth's shadow,  

DLR